This demonstration page uses our WeatherBlox Daily Observations layout. Learn more.

Left ArrowRight Arrow

Hourly Observations for February 24, 2019

Temp ( °F °C ) Dew Point ( °F °C ) Humidity (%) Winds ( mph kmh ) Pressure ( in mb ) Visibility ( mi km ) Precip ( " mm )
12:15 am 00:15 Cloudy 55 13 55 13 100 100 S 16 26 29.47 998 10 16 N/A
12:16 am 00:16 Cloudy 55 13 55 13 100 100 S 18 30 29.47 998 10 16 N/A
12:35 am 00:35 Cloudy 55 13 55 13 100 100 S 21 33 29.46 998 10 16 N/A
12:55 am 00:55 Cloudy 55 13 55 13 100 100 S 20 31 29.45 997 10 16 N/A
12:56 am 00:56 Cloudy 55 13 55 13 100 100 S 20 31 29.45 997 10 16 N/A
1:15 am 01:15 Cloudy 55 13 55 13 100 100 S 14 22 29.44 997 10 16 N/A
1:35 am 01:35 Cloudy 55 13 55 13 100 100 S 15 24 29.44 997 10 16 N/A
1:55 am 01:55 Mostly Cloudy 55 13 55 13 100 100 S 14 22 29.43 997 10 16 N/A
1:56 am 01:56 Mostly Cloudy 55 13 55 13 100 100 S 14 22 29.43 997 10 16 N/A
2:15 am 02:15 Mostly Cloudy 55 13 55 13 100 100 S 16 26 29.42 996 10 16 N/A
2:35 am 02:35 Cloudy 55 13 55 13 100 100 S 16 26 29.40 996 10 16 N/A
2:55 am 02:55 Cloudy 55 13 55 13 100 100 WSW 22 35 29.42 996 7 11 N/A
2:56 am 02:56 Cloudy 55 13 55 13 100 100 WSW 22 35 29.42 996 7 11 N/A
3:15 am 03:15 Partly Cloudy 55 13 50 10 82 82 WSW 22 35 29.42 996 10 16 N/A
3:35 am 03:35 Partly Cloudy 54 12 46 8 77 77 WSW 18 30 29.42 996 10 16 N/A
3:36 am 03:36 Partly Cloudy 54 12 46 8 77 77 WSW 17 28 29.42 996 10 16 N/A
3:55 am 03:55 Partly Cloudy 54 12 46 8 77 77 SW 18 30 29.41 996 10 16 N/A
3:56 am 03:56 Clear 54 12 46 8 77 77 SW 17 28 29.41 996 10 16 N/A
4:15 am 04:15 Clear 52 11 46 8 82 82 SW 14 22 29.41 996 10 16 N/A
4:35 am 04:35 Mostly Cloudy 52 11 48 9 88 88 SW 14 22 29.41 996 10 16 N/A
4:36 am 04:36 Mostly Cloudy 52 11 48 9 88 88 SW 16 26 29.41 996 10 16 N/A
4:55 am 04:55 Partly Cloudy 54 12 48 9 82 82 SW 25 41 29.39 995 10 16 N/A
4:56 am 04:56 Partly Cloudy 54 12 48 9 82 82 SW 23 37 29.39 995 10 16 N/A
5:15 am 05:15 Mostly Cloudy 54 12 46 8 77 77 SW 24 39 29.39 995 10 16 N/A
5:35 am 05:35 Cloudy 52 11 45 7 77 77 WSW 23 37 29.41 996 10 16 N/A
5:36 am 05:36 Cloudy 52 11 45 7 77 77 WSW 25 41 29.41 996 10 16 N/A
5:55 am 05:55 Cloudy 48 9 43 6 82 82 W 43 69 29.46 998 10 16 N/A
5:56 am 05:56 Cloudy 46 8 41 5 82 82 W 43 69 29.47 998 10 16 N/A
6:15 am 06:15 Cloudy 41 5 37 3 87 87 W 40 65 29.52 1000 10 16 N/A
6:35 am 06:35 Cloudy 39 4 36 2 87 87 W 36 57 29.55 1001 10 16 N/A
6:36 am 06:36 Cloudy 39 4 36 2 87 87 W 35 56 29.55 1001 10 16 N/A
6:55 am 06:55 Cloudy 37 3 34 1 87 87 W 37 59 29.57 1001 10 16 N/A
6:56 am 06:56 Cloudy 37 3 34 1 87 87 W 33 54 29.57 1001 10 16 N/A
7:15 am 07:15 Cloudy 37 3 34 1 87 87 W 29 46 29.58 1002 10 16 N/A
7:35 am 07:35 Cloudy 37 3 34 1 87 87 W 40 65 29.59 1002 10 16 N/A
7:36 am 07:36 Cloudy 37 3 34 1 87 87 W 38 61 29.59 1002 10 16 N/A
7:55 am 07:55 Cloudy 36 2 34 1 93 93 W 28 44 29.62 1003 10 16 N/A
8:15 am 08:15 Cloudy 34 1 34 1 100 100 W 38 61 29.64 1004 4 6 N/A
8:35 am 08:35 Cloudy 36 2 34 1 93 93 WSW 29 46 29.66 1004 7 11 N/A
8:36 am 08:36 Cloudy 36 2 34 1 93 93 WSW 36 57 29.66 1004 7 11 N/A
8:55 am 08:55 Cloudy 34 1 32 undefined 93 93 W 32 52 29.67 1005 10 16 N/A
9:15 am 09:15 Cloudy 34 1 32 undefined 93 93 W 24 39 29.69 1005 10 16 N/A
9:35 am 09:35 Cloudy 34 1 32 undefined 93 93 W 26 43 29.71 1006 10 16 N/A
9:36 am 09:36 Cloudy 34 1 32 undefined 93 93 W 30 48 29.71 1006 10 16 N/A
9:55 am 09:55 Cloudy 34 1 32 undefined 93 93 W 37 59 29.72 1006 10 16 N/A
10:15 am 10:15 Cloudy 34 1 30 -1 87 87 W 39 63 29.74 1007 10 16 N/A
10:35 am 10:35 Cloudy 34 1 32 undefined 93 93 W 28 44 29.75 1007 7 11 N/A
10:36 am 10:36 Cloudy 34 1 32 undefined 93 93 W 28 44 29.75 1007 7 11 N/A
10:55 am 10:55 Cloudy 34 1 32 undefined 93 93 W 30 48 29.76 1008 5 8 N/A
11:15 am 11:15 Cloudy 34 1 34 1 100 100 W 26 43 29.78 1009 3 4 N/A
11:35 am 11:35 Cloudy 34 1 34 1 100 100 W 37 59 29.79 1009 3 5 N/A
11:36 am 11:36 Cloudy 34 1 34 1 100 100 W 33 54 29.79 1009 3 5 N/A
11:55 am 11:55 Cloudy 34 1 32 undefined 93 93 W 36 57 29.81 1010 10 16 N/A
12:15 pm 12:15 Cloudy 34 1 32 undefined 93 93 W 28 44 29.83 1010 10 16 N/A
12:16 pm 12:16 Cloudy 34 1 32 undefined 93 93 W 28 44 29.83 1010 10 16 N/A
12:35 pm 12:35 Cloudy 34 1 30 -1 87 87 W 32 52 29.84 1011 10 16 N/A
12:55 pm 12:55 Cloudy 34 1 30 -1 87 87 W 31 50 29.85 1011 10 16 N/A
1:15 pm 13:15 Cloudy 36 2 30 -1 81 81 W 35 56 29.86 1011 10 16 N/A
1:16 pm 13:16 Cloudy 36 2 30 -1 81 81 W 33 54 29.87 1011 10 16 N/A
1:35 pm 13:35 Mostly Cloudy 36 2 30 -1 81 81 W 31 50 29.86 1011 10 16 N/A
1:36 pm 13:36 Mostly Cloudy 36 2 30 -1 81 81 W 29 46 29.86 1011 10 16 N/A
1:55 pm 13:55 Mostly Cloudy 37 3 30 -1 75 75 W 37 59 29.85 1011 10 16 N/A
2:15 pm 14:15 Partly Cloudy 37 3 28 -2 70 70 W 31 50 29.87 1012 10 16 N/A
2:16 pm 14:16 Partly Cloudy 37 3 28 -2 70 70 W 35 56 29.87 1012 10 16 N/A
2:35 pm 14:35 Partly Cloudy 37 3 28 -2 70 70 W 37 59 29.88 1012 10 16 N/A
2:36 pm 14:36 Partly Cloudy 37 3 30 -1 75 75 W 40 65 29.88 1012 10 16 N/A
2:55 pm 14:55 Partly Cloudy 39 4 30 -1 70 70 W 35 56 29.90 1013 10 16 N/A
3:15 pm 15:15 Partly Cloudy 37 3 28 -2 70 70 W 41 67 29.91 1013 10 16 N/A
3:16 pm 15:16 Partly Cloudy 37 3 28 -2 70 70 W 41 67 29.91 1013 10 16 N/A
3:35 pm 15:35 Partly Cloudy 37 3 28 -2 70 70 W 36 57 29.93 1014 10 16 N/A
3:55 pm 15:55 Partly Cloudy 37 3 28 -2 70 70 W 37 59 29.93 1014 10 16 N/A
4:15 pm 16:15 Partly Cloudy 37 3 28 -2 70 70 W 31 50 29.95 1014 10 16 N/A
4:16 pm 16:16 Partly Cloudy 37 3 28 -2 70 70 W 33 54 29.95 1014 10 16 N/A
4:35 pm 16:35 Partly Cloudy 36 2 25 -4 65 65 W 26 43 29.98 1015 10 16 N/A
4:55 pm 16:55 Partly Cloudy 36 2 27 -3 70 70 W 43 69 29.98 1015 10 16 N/A
4:56 pm 16:56 Partly Cloudy 36 2 27 -3 70 70 W 39 63 29.99 1016 10 16 N/A
5:15 pm 17:15 Partly Cloudy 36 2 25 -4 65 65 W 30 48 29.99 1016 10 16 N/A
5:16 pm 17:16 Partly Cloudy 36 2 25 -4 65 65 W 29 46 30.00 1016 10 16 N/A
5:35 pm 17:35 Partly Cloudy 34 1 27 -3 75 75 W 35 56 30.01 1016 10 16 N/A
5:55 pm 17:55 Partly Cloudy 32 undefined 23 -5 69 69 W 32 52 30.03 1017 10 16 N/A
5:56 pm 17:56 Partly Cloudy 32 undefined 23 -5 69 69 W 33 54 30.03 1017 10 16 N/A
6:15 pm 18:15 Sunny 32 undefined 25 -4 75 75 W 25 41 30.04 1017 10 16 N/A
6:16 pm 18:16 Sunny 32 undefined 25 -4 75 75 W 26 43 30.04 1017 10 16 N/A
6:35 pm 18:35 Partly Cloudy 32 undefined 25 -4 75 75 W 30 48 30.06 1018 10 16 N/A
6:55 pm 18:55 Partly Cloudy 30 -1 23 -5 75 75 W 28 44 30.07 1018 10 16 N/A
6:56 pm 18:56 Partly Cloudy 30 -1 23 -5 75 75 W 29 46 30.07 1018 10 16 N/A
7:15 pm 19:15 Partly Cloudy 30 -1 23 -5 75 75 W 28 44 30.08 1019 10 16 N/A
7:16 pm 19:16 Partly Cloudy 30 -1 23 -5 75 75 W 29 46 30.08 1019 10 16 N/A
7:35 pm 19:35 Partly Cloudy 30 -1 21 -6 69 69 W 29 46 30.09 1019 10 16 N/A
7:55 pm 19:55 Clear 28 -2 21 -6 74 74 W 28 44 30.10 1019 10 16 N/A
7:56 pm 19:56 Clear 28 -2 21 -6 74 74 W 29 46 30.10 1019 10 16 N/A
8:15 pm 20:15 Clear 28 -2 21 -6 74 74 W 29 46 30.11 1020 10 16 N/A
8:35 pm 20:35 Clear 28 -2 21 -6 74 74 W 29 46 30.11 1020 10 16 N/A
8:55 pm 20:55 Clear 28 -2 21 -6 74 74 W 31 50 30.12 1020 10 16 N/A
8:56 pm 20:56 Clear 28 -2 21 -6 74 74 W 30 48 30.12 1020 10 16 N/A
9:15 pm 21:15 Clear 27 -3 21 -6 80 80 W 21 33 30.14 1021 10 16 N/A
9:36 pm 21:36 Clear 27 -3 19 -7 74 74 W 28 44 30.16 1021 10 16 N/A
9:55 pm 21:55 Clear 27 -3 19 -7 74 74 W 24 39 30.17 1022 10 16 N/A
9:56 pm 21:56 Clear 27 -3 19 -7 74 74 W 24 39 30.17 1022 10 16 N/A
10:15 pm 22:15 Clear 27 -3 21 -6 80 80 W 25 41 30.18 1022 10 16 N/A

Powered by AerisWeather